Time,TemperatureF,DewpointF,PressureIn,WindDirection,WindDirectionDegrees,WindSpeedMPH,WindSpeedGustMPH,Humidity,HourlyPrecipIn,Conditions,Clouds,dailyrainin,SoftwareType,DateUTC
2013-05-25 00:13:00,51.0,37.0,-100.00,North,10,27.0,38.0,58,-99.99,,,-99.99,,2013-05-25 04:13:00,
2013-05-25 00:23:00,51.0,36.0,-100.00,North,10,29.0,41.0,56,-99.99,,,-99.99,,2013-05-25 04:23:00,
2013-05-25 00:33:00,51.0,36.0,-100.00,North,10,29.0,41.0,56,-99.99,,,-99.99,,2013-05-25 04:33:00,
2013-05-25 00:43:00,50.0,35.0,-100.00,North,10,20.0,38.0,56,-99.99,,,-99.99,,2013-05-25 04:43:00,
2013-05-25 00:52:00,50.0,35.0,-100.00,North,10,24.0,39.0,56,-99.99,,,-99.99,,2013-05-25 04:52:00,
2013-05-25 01:02:00,50.0,35.0,-100.00,North,10,24.0,39.0,56,-99.99,,,-99.99,,2013-05-25 05:02:00,
2013-05-25 01:12:00,50.0,35.0,-100.00,North,10,27.0,42.0,55,-99.99,,,-99.99,,2013-05-25 05:12:00,
2013-05-25 01:22:00,50.0,34.0,-100.00,North,10,30.0,38.0,54,-99.99,,,-99.99,,2013-05-25 05:22:00,
2013-05-25 01:32:00,51.0,35.0,-100.00,North,10,29.0,45.0,54,-99.99,,,-99.99,,2013-05-25 05:32:00,
2013-05-25 01:43:00,51.0,35.0,-100.00,North,10,29.0,45.0,54,-99.99,,,-99.99,,2013-05-25 05:43:00,
2013-05-25 01:52:00,51.0,35.0,-100.00,North,10,25.0,38.0,55,-99.99,,,-99.99,,2013-05-25 05:52:00,
2013-05-25 02:02:00,51.0,35.0,-100.00,North,10,25.0,38.0,55,-99.99,,,-99.99,,2013-05-25 06:02:00,
2013-05-25 02:12:00,51.0,35.0,-100.00,North,10,26.0,45.0,56,-99.99,,,-99.99,,2013-05-25 06:12:00,
2013-05-25 02:22:00,50.0,36.0,-100.00,North,10,31.0,39.0,58,-99.99,,,-99.99,,2013-05-25 06:22:00,
2013-05-25 02:32:00,50.0,36.0,-100.00,North,10,31.0,39.0,58,-99.99,,,-99.99,,2013-05-25 06:32:00,
2013-05-25 02:42:00,50.0,36.0,-100.00,North,10,28.0,36.0,58,-99.99,,,-99.99,,2013-05-25 06:42:00,
2013-05-25 02:52:00,50.0,36.0,-100.00,North,10,29.0,38.0,58,-99.99,,,-99.99,,2013-05-25 06:52:00,
2013-05-25 03:02:00,50.0,36.0,-100.00,North,10,29.0,38.0,58,-99.99,,,-99.99,,2013-05-25 07:02:00,
2013-05-25 03:11:00,50.0,36.0,-100.00,North,5,27.0,39.0,58,-99.99,,,-99.99,,2013-05-25 07:11:00,
2013-05-25 03:22:00,50.0,36.0,-100.00,North,10,22.0,31.0,58,-99.99,,,-99.99,,2013-05-25 07:22:00,
2013-05-25 03:32:00,50.0,36.0,-100.00,North,5,28.0,37.0,57,-99.99,,,-99.99,,2013-05-25 07:32:00,
2013-05-25 03:42:00,50.0,36.0,-100.00,North,5,28.0,37.0,57,-99.99,,,-99.99,,2013-05-25 07:42:00,
2013-05-25 03:52:00,50.0,35.0,-100.00,North,5,24.0,39.0,56,-99.99,,,-99.99,,2013-05-25 07:52:00,
2013-05-25 04:02:00,50.0,35.0,-100.00,North,5,24.0,39.0,56,-99.99,,,-99.99,,2013-05-25 08:02:00,
2013-05-25 04:11:00,50.0,35.0,-100.00,North,10,32.0,39.0,55,-99.99,,,-99.99,,2013-05-25 08:11:00,
2013-05-25 04:23:00,50.0,35.0,-100.00,North,5,27.0,34.0,55,-99.99,,,-99.99,,2013-05-25 08:23:00,
2013-05-25 04:32:00,51.0,35.0,-100.00,North,5,28.0,39.0,54,-99.99,,,-99.99,,2013-05-25 08:32:00,
2013-05-25 04:42:00,51.0,35.0,-100.00,North,5,28.0,39.0,54,-99.99,,,-99.99,,2013-05-25 08:42:00,
2013-05-25 04:52:00,51.0,35.0,-100.00,North,5,29.0,39.0,54,-99.99,,,-99.99,,2013-05-25 08:52:00,
2013-05-25 05:02:00,51.0,35.0,-100.00,North,5,29.0,39.0,54,-99.99,,,-99.99,,2013-05-25 09:02:00,
2013-05-25 05:11:00,51.0,35.0,-100.00,North,5,24.0,33.0,54,-99.99,,,-99.99,,2013-05-25 09:11:00,
2013-05-25 05:21:00,51.0,35.0,-100.00,North,5,28.0,42.0,54,-99.99,,,-99.99,,2013-05-25 09:21:00,
2013-05-25 05:33:00,51.0,35.0,-100.00,North,5,28.0,42.0,54,-99.99,,,-99.99,,2013-05-25 09:33:00,
2013-05-25 05:43:00,51.0,34.0,-100.00,North,5,26.0,37.0,53,-99.99,,,-99.99,,2013-05-25 09:43:00,
2013-05-25 05:52:00,51.0,34.0,-100.00,North,5,24.0,37.0,52,-99.99,,,-99.99,,2013-05-25 09:52:00,
2013-05-25 06:03:00,51.0,34.0,-100.00,North,5,24.0,37.0,52,-99.99,,,-99.99,,2013-05-25 10:03:00,
2013-05-25 06:13:00,51.0,34.0,-100.00,North,5,23.0,38.0,52,-99.99,,,-99.99,,2013-05-25 10:13:00,
2013-05-25 06:23:00,51.0,34.0,-100.00,North,5,22.0,38.0,52,-99.99,,,-99.99,,2013-05-25 10:23:00,
2013-05-25 06:33:00,51.0,33.0,-100.00,North,5,28.0,38.0,51,-99.99,,,-99.99,,2013-05-25 10:33:00,
2013-05-25 06:42:00,51.0,33.0,-100.00,North,5,28.0,38.0,51,-99.99,,,-99.99,,2013-05-25 10:42:00,
2013-05-25 06:52:00,51.0,33.0,-100.00,North,5,27.0,37.0,50,-99.99,,,-99.99,,2013-05-25 10:52:00,
2013-05-25 07:03:00,51.0,33.0,-100.00,North,5,27.0,37.0,50,-99.99,,,-99.99,,2013-05-25 11:03:00,
2013-05-25 07:12:00,51.0,33.0,-100.00,North,5,29.0,41.0,50,-99.99,,,-99.99,,2013-05-25 11:12:00,
2013-05-25 07:22:00,51.0,32.0,-100.00,North,5,31.0,45.0,49,-99.99,,,-99.99,,2013-05-25 11:22:00,
2013-05-25 07:32:00,51.0,32.0,-100.00,North,5,31.0,45.0,49,-99.99,,,-99.99,,2013-05-25 11:32:00,
2013-05-25 07:42:00,51.0,32.0,-100.00,North,5,29.0,38.0,49,-99.99,,,-99.99,,2013-05-25 11:42:00,
2013-05-25 07:52:00,51.0,33.0,-100.00,North,5,27.0,44.0,49,-99.99,,,-99.99,,2013-05-25 11:52:00,
2013-05-25 08:02:00,51.0,33.0,-100.00,North,5,27.0,44.0,49,-99.99,,,-99.99,,2013-05-25 12:02:00,
2013-05-25 08:12:00,52.0,33.0,-100.00,North,5,28.0,40.0,47,-99.99,,,-99.99,,2013-05-25 12:12:00,
2013-05-25 08:22:00,53.0,33.0,-100.00,North,5,29.0,40.0,46,-99.99,,,-99.99,,2013-05-25 12:22:00,
2013-05-25 08:32:00,53.0,33.0,-100.00,North,5,29.0,40.0,46,-99.99,,,-99.99,,2013-05-25 12:32:00,
2013-05-25 08:42:00,54.0,32.0,-100.00,North,5,28.0,41.0,44,-99.99,,,-99.99,,2013-05-25 12:42:00,
2013-05-25 08:52:00,53.0,31.0,-100.00,North,5,32.0,48.0,44,-99.99,,,-99.99,,2013-05-25 12:52:00,
2013-05-25 09:02:00,53.0,31.0,-100.00,North,5,32.0,48.0,44,-99.99,,,-99.99,,2013-05-25 13:02:00,
2013-05-25 09:11:00,53.0,32.0,-100.00,North,5,30.0,43.0,44,-99.99,,,-99.99,,2013-05-25 13:11:00,
2013-05-25 09:22:00,55.0,33.0,-100.00,North,5,24.0,44.0,43,-99.99,,,-99.99,,2013-05-25 13:22:00,
2013-05-25 09:32:00,55.0,33.0,-100.00,North,5,24.0,44.0,43,-99.99,,,-99.99,,2013-05-25 13:32:00,
2013-05-25 09:42:00,54.0,32.0,-100.00,North,5,28.0,43.0,42,-99.99,,,-99.99,,2013-05-25 13:42:00,
2013-05-25 09:52:00,55.0,32.0,-100.00,North,5,24.0,39.0,41,-99.99,,,-99.99,,2013-05-25 13:52:00,
2013-05-25 10:02:00,55.0,32.0,-100.00,North,5,24.0,39.0,41,-99.99,,,-99.99,,2013-05-25 14:02:00,
2013-05-25 10:11:00,56.0,32.0,-100.00,North,5,27.0,37.0,40,-99.99,,,-99.99,,2013-05-25 14:11:00,
2013-05-25 10:22:00,56.0,32.0,-100.00,North,5,26.0,38.0,39,-99.99,,,-99.99,,2013-05-25 14:22:00,
2013-05-25 10:32:00,56.0,32.0,-100.00,North,5,26.0,38.0,39,-99.99,,,-99.99,,2013-05-25 14:32:00,
2013-05-25 10:42:00,56.0,32.0,-100.00,North,5,28.0,42.0,40,-99.99,,,-99.99,,2013-05-25 14:42:00,
2013-05-25 10:52:00,58.0,32.0,-100.00,North,5,25.0,42.0,38,-99.99,,,-99.99,,2013-05-25 14:52:00,
2013-05-25 11:02:00,58.0,32.0,-100.00,North,5,25.0,42.0,38,-99.99,,,-99.99,,2013-05-25 15:02:00,
2013-05-25 11:12:00,58.0,32.0,-100.00,North,5,24.0,40.0,37,-99.99,,,-99.99,,2013-05-25 15:12:00,
2013-05-25 11:22:00,58.0,31.0,-100.00,North,5,25.0,37.0,36,-99.99,,,-99.99,,2013-05-25 15:22:00,
2013-05-25 11:33:00,58.0,31.0,-100.00,North,5,26.0,43.0,36,-99.99,,,-99.99,,2013-05-25 15:33:00,
2013-05-25 11:43:00,58.0,31.0,-100.00,North,5,26.0,43.0,36,-99.99,,,-99.99,,2013-05-25 15:43:00,
2013-05-25 11:53:00,58.0,31.0,-100.00,North,5,26.0,43.0,36,-99.99,,,-99.99,,2013-05-25 15:53:00,
2013-05-25 12:12:00,58.0,32.0,-100.00,North,5,30.0,38.0,36,-99.99,,,-99.99,,2013-05-25 16:12:00,
2013-05-25 12:23:00,59.0,32.0,-100.00,North,5,24.0,40.0,35,-99.99,,,-99.99,,2013-05-25 16:23:00,
2013-05-25 12:33:00,60.0,31.0,-100.00,North,5,28.0,37.0,34,-99.99,,,-99.99,,2013-05-25 16:33:00,
2013-05-25 12:42:00,60.0,31.0,-100.00,North,5,28.0,37.0,34,-99.99,,,-99.99,,2013-05-25 16:42:00,
2013-05-25 12:52:00,60.0,32.0,-100.00,North,5,25.0,40.0,34,-99.99,,,-99.99,,2013-05-25 16:52:00,
2013-05-25 13:03:00,60.0,32.0,-100.00,North,5,25.0,40.0,34,-99.99,,,-99.99,,2013-05-25 17:03:00,
2013-05-25 13:11:00,61.0,31.0,-100.00,North,5,29.0,41.0,33,-99.99,,,-99.99,,2013-05-25 17:11:00,
2013-05-25 13:22:00,61.0,32.0,-100.00,North,5,20.0,38.0,33,-99.99,,,-99.99,,2013-05-25 17:22:00,
2013-05-25 13:32:00,61.0,31.0,-100.00,North,5,26.0,41.0,32,-99.99,,,-99.99,,2013-05-25 17:32:00,
2013-05-25 13:42:00,61.0,31.0,-100.00,North,5,26.0,41.0,32,-99.99,,,-99.99,,2013-05-25 17:42:00,
2013-05-25 13:52:00,62.0,30.0,-100.00,North,5,28.0,37.0,30,-99.99,,,-99.99,,2013-05-25 17:52:00,
2013-05-25 14:02:00,62.0,30.0,-100.00,North,5,28.0,37.0,30,-99.99,,,-99.99,,2013-05-25 18:02:00,
2013-05-25 14:11:00,62.0,31.0,-100.00,North,5,26.0,40.0,31,-99.99,,,-99.99,,2013-05-25 18:11:00,
2013-05-25 14:22:00,62.0,31.0,-100.00,North,5,32.0,39.0,31,-99.99,,,-99.99,,2013-05-25 18:22:00,
2013-05-25 14:32:00,62.0,31.0,-100.00,North,5,32.0,39.0,31,-99.99,,,-99.99,,2013-05-25 18:32:00,
2013-05-25 14:42:00,62.0,31.0,-100.00,North,5,29.0,41.0,31,-99.99,,,-99.99,,2013-05-25 18:42:00,
2013-05-25 14:52:00,61.0,30.0,-100.00,North,5,27.0,38.0,30,-99.99,,,-99.99,,2013-05-25 18:52:00,
2013-05-25 15:02:00,61.0,30.0,-100.00,North,5,27.0,38.0,30,-99.99,,,-99.99,,2013-05-25 19:02:00,
2013-05-25 15:11:00,61.0,30.0,-100.00,North,5,29.0,42.0,31,-99.99,,,-99.99,,2013-05-25 19:11:00,
2013-05-25 15:22:00,62.0,30.0,-100.00,North,5,19.0,36.0,30,-99.99,,,-99.99,,2013-05-25 19:22:00,
2013-05-25 15:32:00,62.0,30.0,-100.00,North,5,29.0,40.0,30,-99.99,,,-99.99,,2013-05-25 19:32:00,
2013-05-25 15:42:00,62.0,30.0,-100.00,North,5,29.0,40.0,30,-99.99,,,-99.99,,2013-05-25 19:42:00,
2013-05-25 15:52:00,62.0,29.0,-100.00,North,5,27.0,38.0,29,-99.99,,,-99.99,,2013-05-25 19:52:00,
2013-05-25 16:02:00,62.0,29.0,-100.00,North,5,27.0,38.0,29,-99.99,,,-99.99,,2013-05-25 20:02:00,
2013-05-25 16:11:00,61.0,30.0,-100.00,North,5,20.0,38.0,30,-99.99,,,-99.99,,2013-05-25 20:11:00,
2013-05-25 16:22:00,63.0,31.0,-100.00,North,5,14.0,35.0,29,-99.99,,,-99.99,,2013-05-25 20:22:00,
2013-05-25 16:32:00,63.0,30.0,-100.00,North,5,25.0,36.0,29,-99.99,,,-99.99,,2013-05-25 20:32:00,
2013-05-25 16:42:00,63.0,30.0,-100.00,North,5,25.0,36.0,29,-99.99,,,-99.99,,2013-05-25 20:42:00,
2013-05-25 16:52:00,63.0,29.0,-100.00,North,5,21.0,37.0,28,-99.99,,,-99.99,,2013-05-25 20:52:00,
2013-05-25 17:02:00,63.0,29.0,-100.00,North,5,21.0,37.0,28,-99.99,,,-99.99,,2013-05-25 21:02:00,
2013-05-25 17:11:00,63.0,30.0,-100.00,North,5,21.0,36.0,28,-99.99,,,-99.99,,2013-05-25 21:11:00,
2013-05-25 17:22:00,63.0,29.0,-100.00,North,5,22.0,42.0,28,-99.99,,,-99.99,,2013-05-25 21:22:00,
2013-05-25 17:33:00,63.0,29.0,-100.00,North,5,22.0,42.0,28,-99.99,,,-99.99,,2013-05-25 21:33:00,
2013-05-25 17:43:00,64.0,30.0,-100.00,North,5,20.0,30.0,28,-99.99,,,-99.99,,2013-05-25 21:43:00,
2013-05-25 17:53:00,64.0,30.0,-100.00,North,5,22.0,29.0,28,-99.99,,,-99.99,,2013-05-25 21:53:00,
2013-05-25 18:03:00,64.0,30.0,-100.00,North,5,22.0,29.0,28,-99.99,,,-99.99,,2013-05-25 22:03:00,
2013-05-25 18:13:00,63.0,29.0,-100.00,North,5,22.0,35.0,27,-99.99,,,-99.99,,2013-05-25 22:13:00,
2013-05-25 18:23:00,64.0,29.0,-100.00,North,5,23.0,36.0,27,-99.99,,,-99.99,,2013-05-25 22:23:00,
2013-05-25 18:33:00,64.0,29.0,-100.00,North,5,17.0,31.0,27,-99.99,,,-99.99,,2013-05-25 22:33:00,
2013-05-25 18:42:00,64.0,29.0,-100.00,North,5,17.0,31.0,27,-99.99,,,-99.99,,2013-05-25 22:42:00,
2013-05-25 18:52:00,64.0,30.0,-100.00,North,5,18.0,33.0,28,-99.99,,,-99.99,,2013-05-25 22:52:00,
2013-05-25 19:02:00,64.0,30.0,-100.00,North,5,18.0,33.0,28,-99.99,,,-99.99,,2013-05-25 23:02:00,
2013-05-25 19:12:00,64.0,30.0,-100.00,North,5,12.0,28.0,28,-99.99,,,-99.99,,2013-05-25 23:12:00,
2013-05-25 19:22:00,64.0,30.0,-100.00,North,5,20.0,25.0,28,-99.99,,,-99.99,,2013-05-25 23:22:00,
2013-05-25 19:32:00,63.0,30.0,-100.00,North,5,18.0,25.0,29,-99.99,,,-99.99,,2013-05-25 23:32:00,
2013-05-25 19:42:00,63.0,30.0,-100.00,North,5,18.0,25.0,29,-99.99,,,-99.99,,2013-05-25 23:42:00,
2013-05-25 19:52:00,62.0,29.0,-100.00,North,5,11.0,22.0,29,-99.99,,,-99.99,,2013-05-25 23:52:00,
2013-05-25 20:02:00,62.0,29.0,-100.00,North,5,11.0,22.0,29,-99.99,,,-99.99,,2013-05-26 00:02:00,
2013-05-25 20:12:00,62.0,30.0,-100.00,North,5,13.0,23.0,30,-99.99,,,-99.99,,2013-05-26 00:12:00,
2013-05-25 20:22:00,62.0,30.0,-100.00,North,5,14.0,19.0,30,-99.99,,,-99.99,,2013-05-26 00:22:00,
2013-05-25 20:32:00,62.0,30.0,-100.00,North,5,14.0,19.0,30,-99.99,,,-99.99,,2013-05-26 00:32:00,
2013-05-25 20:42:00,62.0,30.0,-100.00,North,5,14.0,19.0,30,-99.99,,,-99.99,,2013-05-26 00:42:00,
2013-05-25 20:53:00,61.0,31.0,-100.00,North,5,11.0,16.0,32,-99.99,,,-99.99,,2013-05-26 00:53:00,
2013-05-25 21:01:00,61.0,31.0,-100.00,North,5,11.0,16.0,32,-99.99,,,-99.99,,2013-05-26 01:01:00,
2013-05-25 21:11:00,61.0,31.0,-100.00,North,5,10.0,15.0,32,-99.99,,,-99.99,,2013-05-26 01:11:00,
2013-05-25 21:21:00,60.0,31.0,-100.00,North,5,10.0,13.0,33,-99.99,,,-99.99,,2013-05-26 01:21:00,
2013-05-25 21:32:00,60.0,31.0,-100.00,North,5,9.0,13.0,33,-99.99,,,-99.99,,2013-05-26 01:32:00,
2013-05-25 21:42:00,60.0,31.0,-100.00,North,5,9.0,13.0,33,-99.99,,,-99.99,,2013-05-26 01:42:00,
2013-05-25 21:52:00,60.0,32.0,-100.00,North,5,12.0,15.0,34,-99.99,,,-99.99,,2013-05-26 01:52:00,
2013-05-25 22:02:00,60.0,32.0,-100.00,North,5,12.0,15.0,34,-99.99,,,-99.99,,2013-05-26 02:02:00,
2013-05-25 22:11:00,60.0,32.0,-100.00,North,5,9.0,12.0,34,-99.99,,,-99.99,,2013-05-26 02:11:00,
2013-05-25 22:21:00,60.0,32.0,-100.00,North,5,10.0,12.0,35,-99.99,,,-99.99,,2013-05-26 02:21:00,
2013-05-25 22:32:00,60.0,32.0,-100.00,North,5,11.0,14.0,35,-99.99,,,-99.99,,2013-05-26 02:32:00,
2013-05-25 22:42:00,60.0,32.0,-100.00,North,5,11.0,14.0,35,-99.99,,,-99.99,,2013-05-26 02:42:00,
2013-05-25 22:52:00,60.0,32.0,-100.00,North,5,12.0,14.0,35,-99.99,,,-99.99,,2013-05-26 02:52:00,
2013-05-25 23:01:00,60.0,32.0,-100.00,North,5,12.0,14.0,35,-99.99,,,-99.99,,2013-05-26 03:01:00,
2013-05-25 23:11:00,59.0,32.0,-100.00,North,5,13.0,15.0,35,-99.99,,,-99.99,,2013-05-26 03:11:00,
2013-05-25 23:22:00,59.0,33.0,-100.00,North,5,12.0,14.0,37,-99.99,,,-99.99,,2013-05-26 03:22:00,
2013-05-25 23:33:00,59.0,33.0,-100.00,North,5,12.0,14.0,37,-99.99,,,-99.99,,2013-05-26 03:33:00,
2013-05-25 23:43:00,59.0,33.0,-100.00,North,5,12.0,15.0,37,-99.99,,,-99.99,,2013-05-26 03:43:00,
2013-05-25 23:53:00,59.0,32.0,-100.00,North,5,12.0,14.0,37,-99.99,,,-99.99,,2013-05-26 03:53:00,